Weather History for Martha's Vineyard, MA

Change the Weather History Date:

Monday, January 13, 2014

  Actual Average Record
Temperature  
Mean Temperature 38 °F -  
Max Temperature 50 °F 36 °F 56 °F (1975)
Min Temperature 28 °F 21 °F 2 °F (1981)
Degree Days  
Heating Degree Days 27    
Moisture  
Dew Point 35 °F    
Average Humidity 76    
Maximum Humidity 88    
Minimum Humidity 60    
Precipitation  
Precipitation 0.00 in - - ()
Sea Level Pressure  
Sea Level Pressure 30.09 in    
Wind  
Wind Speed 9 mph (SW)    
Max Wind Speed 18 mph    
Max Gust Speed 28 mph    
Visibility 10 miles    
Events      
Averages and records for this station are not official NWS values.
T = Trace of Precipitation, MM = Missing Value Source: NWS Daily Summary

Daily Weather History Graph

Daily Weather History Graph

Search for Another Location

Airport:

Trip Planner

Search our weather history database for the weather conditions in past years. The results will help you decide how hot, cold, wet, or windy it might be!

Date:

Astronomy

Jan. 13, 2014 Rise Set
Actual Time 7:07 AM EST 4:35 PM EST
Civil Twilight 6:36 AM EST 5:06 PM EST
Nautical Twilight 6:02 AM EST 5:40 PM EST
Astronomical Twilight 5:29 AM EST 6:13 PM EST
Moon 2:48 PM EST (1/13) 4:53 AM EST (1/13)
Length of Visible Light 10h 29m
Length of Day
9h 28m
Waxing Gibbous, 95% of the Moon is Illuminated
Jan 13
Waxing Gibbous
Jan 15
Full
Jan 24
Last Quarter
Jan 30
New
Feb 6
First Quarter

Hourly Weather History & Observations

Time (EST) Temp. Windchill Dew Point Humidity Pressure Visibility Wind Dir Wind Speed Gust Speed Precip Events Conditions
12:53 AM 36.0 °F 30.3 °F 27.0 °F 70% 30.02 in 10.0 mi West 6.9 mph - N/A   Clear
1:53 AM 37.0 °F 29.8 °F 27.0 °F 67% 30.06 in 10.0 mi West 10.4 mph - N/A   Clear
2:53 AM 36.0 °F 31.1 °F 27.0 °F 70% 30.07 in 10.0 mi West 5.8 mph - N/A   Clear
3:53 AM 35.1 °F 31.0 °F 27.0 °F 72% 30.10 in 10.0 mi West 4.6 mph - N/A   Clear
4:53 AM 35.1 °F - 27.0 °F 72% 30.12 in 10.0 mi Calm Calm - N/A   Clear
5:53 AM 30.0 °F 25.2 °F 25.0 °F 82% 30.12 in 10.0 mi SW 4.6 mph - N/A   Clear
6:53 AM 28.0 °F 24.2 °F 25.0 °F 88% 30.14 in 10.0 mi WSW 3.5 mph - N/A   Clear
7:53 AM 33.1 °F 28.7 °F 28.0 °F 82% 30.16 in 10.0 mi SW 4.6 mph - N/A   Clear
8:53 AM 39.9 °F 36.7 °F 30.9 °F 70% 30.15 in 10.0 mi WSW 4.6 mph - N/A   Clear
9:53 AM 44.1 °F 37.7 °F 30.9 °F 60% 30.17 in 10.0 mi WSW 12.7 mph - N/A   Clear
10:53 AM 45.0 °F 38.5 °F 33.1 °F 63% 30.16 in 10.0 mi SW 13.8 mph - N/A   Clear
11:53 AM 45.0 °F 38.9 °F 34.0 °F 65% 30.12 in 10.0 mi SW 12.7 mph 19.6 mph N/A   Clear
12:53 PM 46.0 °F 38.8 °F 36.0 °F 68% 30.10 in 10.0 mi SSW 18.4 mph - N/A   Clear
1:53 PM 46.9 °F - 37.0 °F 68% 30.11 in 10.0 mi SW 15.0 mph 21.9 mph N/A   Clear
2:53 PM 46.9 °F - 37.9 °F 71% 30.11 in 10.0 mi SW 12.7 mph - N/A   Clear
3:53 PM 45.0 °F 39.7 °F 39.0 °F 80% 30.08 in 10.0 mi SSW 10.4 mph - N/A   Clear
4:53 PM 43.0 °F 37.2 °F 39.0 °F 86% 30.08 in 10.0 mi SSW 10.4 mph - N/A   Clear
5:53 PM 46.0 °F 39.9 °F 42.1 °F 86% 30.08 in 10.0 mi SSW 13.8 mph - N/A   Clear
6:53 PM 46.9 °F - 42.1 °F 83% 30.07 in 10.0 mi South 12.7 mph - N/A   Clear
7:53 PM 46.9 °F - 43.0 °F 86% 30.07 in 10.0 mi SSW 15.0 mph 21.9 mph N/A   Clear
8:53 PM 46.9 °F - 43.0 °F 86% 30.04 in 10.0 mi South 13.8 mph - N/A   Clear
9:53 PM 48.0 °F - 44.1 °F 86% 30.01 in 10.0 mi South 13.8 mph 23.0 mph N/A   Clear
10:53 PM 48.0 °F - 44.1 °F 86% 29.99 in 10.0 mi South 15.0 mph - N/A   Clear
11:53 PM 50.0 °F - 45.0 °F 83% 29.97 in 10.0 mi South 17.3 mph 27.6 mph N/A   Partly Cloudy